NOAA NWS Hourly Roundups by Site

Regional Weather Roundup for Bismarck, ND

To Select Another Site Choose from List

Select Site:  

000
ASUS43 KBIS 211610
RWRBIS

NWR BROADCAST TEXT
NATIONAL WEATHER SERVICE BISMARCK ND
1100 AM CDT SUN OCT 21 2018

NOTE: "FAIR" INDICATES FEW OR NO CLOUDS BELOW 12,000 FEET WITH NO
SIGNIFICANT WEATHER AND/OR OBSTRUCTIONS TO VISIBILITY.


CITY           SKY/WX    TMP DP  RH WIND       PRES   REMARKS
WILLISTON      SUNNY     47  30  51 VRB3      30.13S
MINOT          SUNNY     50  30  46 W14       30.05F
MINOT AFB      SUNNY     49  30  49 W15       30.04S
BISMARCK       SUNNY     49  31  49 VRB7      30.08R
DICKINSON      SUNNY     49  30  48 NW6       30.11R
GARRISON         N/A     49  31  49 NW13      30.08R
HETTINGER ARPT SUNNY     51  27  39 N12       30.13R
JAMESTOWN      SUNNY     47  30  51 NW15      30.00R
CARRINGTON     FAIR      46  30  53 NW14      30.04R
HAZEN          FAIR      52  34  50 N9        30.11S
LINTON           N/A     46  30  53 NW10      30.08S
MANDAN         FAIR      48  34  57 N13       30.09R
OAKES          FAIR      45  30  57 NW10      30.01R
RUGBY          FAIR      41  28  60 NW17      30.03S
STANLEY        FAIR      48  30  49 NW13      30.08F
TIOGA          FAIR      46  30  53 NW12      30.10F
WATFORD CITY   FAIR      46  32  57 W6        30.12F
$$

CITY           SKY/WX    TMP DP  RH WIND       PRES   REMARKS
GRAND FORKS    FAIR      44  26  49 NW13      29.97R
GRAND FORKS AF FAIR      47  27  45 NW14      29.97R
DEVILS LAKE    FAIR      43  28  55 NW15      30.01R
FARGO          FAIR      41  27  57 NW9       29.99S
CANDO          FAIR      45  28  53 NW10      30.02S
CAVALIER       FAIR      46  25  42 NW16      29.95S
GRAFTON        FAIR      45  27  49 NW13      29.98R
GWINNER          N/A     46  30  53 CALM      30.00R
LANGDON        FAIR      43  28  56 NW15      29.98R
ROLLA          FAIR      48  30  49 NW16      30.00S
WALHALLA         N/A     45  45 100 NW13      29.97R
$$

CITY           SKY/WX    TMP DP  RH WIND       PRES   REMARKS
ABERDEEN       SUNNY     45  29  53 VRB5      30.03S
MOBRIDGE       SUNNY     50  35  56 NW12      30.03R
BUFFALO          N/A     53  25  33 NE10      30.10S
RAPID CITY     SUNNY     60  34  37 N16       30.13R
GLASGOW        SUNNY     44  30  57 NW6       30.14F
SIDNEY           N/A     42  31  64 S5        30.15S
WOLF POINT     SUNNY     45  29  53 SW6       30.16S
GLENDIVE       SUNNY     48  28  46 CALM      30.16R
MILES CITY     SUNNY     47  35  63 CALM      30.15S
BAKER          SUNNY     50  30  46 CALM      30.15S
$$

CITY           SKY/WX    TMP DP  RH WIND       PRES   REMARKS
BILLINGS       MOSUNNY   51  32  48 N5        30.15S
GREAT FALLS    SUNNY     44  29  55 SW8       30.09F
REGINA         SUNNY     45  30  57 W10       30.07S
ESTEVAN        SUNNY     43  30  61 NW15      30.08R
$$



 

View Past Reports for Bismarck, ND.

Products Courtesy of NOAA-NWS
NWS Information Parsing Script by Ken True at Saratoga Weather - Script by SE Lincoln Weather.